Regional Weather Roundup
Issued by NWS

Current Version | Previous Version | Text Only | Print | Product List | Glossary On
Versions: 1 2 3 4 5 6 7 8 9 10 11 12 13 14 15 16 17 18 19 20 21 22 23 24 25 26 27
000
ASUS46 KSEW 241010
RWRWA

WASHINGTON REGIONAL WEATHER ROUNDUP
NATIONAL WEATHER SERVICE SEATTLE WA
300 AM PDT THU AUG 24 2017

NOTE:"FAIR" INDICATES FEW OR NO CLOUDS BELOW 12,000 FEET WITH NO
SIGNIFICANT WEATHER AND/OR OBSTRUCTIONS TO VISIBILITY.

WAZ507-509-555>559-241100-
SEATTLE, TACOMA, EVERETT, AND VICINITY

CITY           SKY/WX    TMP DP  RH WIND       PRES   REMARKS
EVERETT        CLOUDY    56  49  77 N12       30.02S
BOEING FIELD   CLOUDY    62  50  64 MISG      30.01R
RENTON         CLOUDY    62  51  67 NW10      30.00S
SEATAC AIRPORT CLOUDY    62  49  62 N12       30.02R
JBLM-MCCHORD   CLOUDY    61  57  88 SW9       30.02R
PUYALLUP       CLOUDY    63  57  82 W7        30.02R
BREMERTON      CLOUDY    57  55  93 E7        30.01S FOG
JBLM-FT LEWIS  CLOUDY    60  55  83 S10       30.01R
TACOMA NARROWS CLOUDY    59  53  80 SW6       30.02R
$$

WAZ001-503-506-510-514-515-241100-
NORTH INTERIOR

CITY           SKY/WX    TMP DP  RH WIND       PRES   REMARKS
BELLINGHAM     CLOUDY    60  50  69 S9G17     29.96S
FRIDAY HARBOR  CLOUDY    57  49  74 W6        29.99R
EASTSOUND      CLOUDY    59  52  77 S7        29.97S
PORT ANGELES   FAIR      57  44  62 W14G25    30.01S
EDIZ HOOK      FAIR      57  45  63 W20G25    30.01R
PORT TOWNSEND  CLOUDY    59  46  63 NW13G23   30.01S
NAS WHIDBEY    CLOUDY    58  49  72 SW10      30.05R
ARLINGTON      CLOUDY    57  49  74 N8        30.03S
BURLINGTON     CLOUDY    57  50  77 S8        30.00S
$$

WAZ020-022-039-040-504-511-512-241100-
SOUTHWEST INTERIOR

CITY           SKY/WX    TMP DP  RH WIND       PRES   REMARKS
SHELTON        MOCLDY    57  47  69 SW9       29.98S
OLYMPIA        CLOUDY    59  49  69 S7        30.02R
CHEHALIS       MOCLDY    57  50  77 SW5       30.05R
KELSO          CLOUDY    61  51  70 NW6       30.06R
VANCOUVER      MOCLDY    65  59  81 N6        30.02R
SCAPPOOSE, OR  MOCLDY    63  53  70 NW8       30.02R
PORTLAND, OR   MOCLDY    65  58  78 NW7       30.02R
$$

WAZ021-516-517-241100-
WASHINGTON COAST

CITY           SKY/WX    TMP DP  RH WIND       PRES   REMARKS
FORKS          FAIR      47  44  90 CALM      30.06S
HOQUIAM        FAIR      56  52  86 W9        30.06R
ASTORIA, OR    CLOUDY    59  52  77 NW6       30.07S
$$

WAZ019-023-024-040-567>569-241100-
CASCADE MOUNTAINS AND COLUMBIA GORGE

CITY           SKY/WX    TMP DP  RH WIND       PRES   REMARKS
STAMPEDE PASS  FOG       51  51 100 VRB5      30.04S VSB 1/2
TROUTDALE, OR  CLOUDY    66  58  75 NW6       30.01R
HOOD RIVER, OR FAIR      64  55  72 W7        29.94R
THE DALLES, OR FAIR      70  56  61 NW12G22   29.89S
$$

WAZ026-027-041>044-520-521-241100-
EAST SLOPES

CITY           SKY/WX    TMP DP  RH WIND       PRES   REMARKS
OMAK           FAIR      74  47  38 VRB5      29.79S
WENATCHEE      FAIR      71  42  35 NW10      29.84R
ELLENSBURG     FAIR      66  50  56 NW23G31   29.90R
YAKIMA         FAIR      73  54  51 NW7       29.86S
SUNNYSIDE ARPT   N/A     57  56  95 CALM      29.84S
YAKIMA TC      FAIR      65  49  55 E8        29.85S
$$

WAZ028-034-035-241100-
COLUMBIA BASIN

CITY           SKY/WX    TMP DP  RH WIND       PRES   REMARKS
EPHRATA        FAIR      63  49  60 CALM      29.82S
MOSES LAKE     FAIR      69  55  60 SW7       29.83S
PASCO          FAIR      68  58  70 SW5       29.83R
RICHLAND ARPT  FAIR      70  60  69 CALM      29.82S
HERMISTON, OR  FAIR      73  57  57 SW15      29.84S
$$

WAZ036>038-241100-
NORTHEAST WASHINGTON

CITY           SKY/WX    TMP DP  RH WIND       PRES   REMARKS
SPOKANE GEIGER CLOUDY    71  51  49 S12       29.89F
SPOKANE FELTS  FAIR      73  51  46 CALM      29.88F
FAIRCHILD AFB  CLOUDY    68  50  53 S8        29.89F
COEURDALENE,ID FAIR      70  53  54 SE7       29.91S
DEER PARK      FAIR      65  49  56 SE3       29.89F
$$

WAZ029>033-241100-
SOUTHEAST WASHINGTON

CITY           SKY/WX    TMP DP  RH WIND       PRES   REMARKS
PULLMAN        CLOUDY    67  51  56 CALM      29.93F
LEWISTON, ID   FAIR      73  51  46 N3        29.86S
WALLA WALLA    FAIR      73  58  59 S8        29.86F
PENDLETON, OR  FAIR      71  54  54 W10       29.88S
$$




USA.gov is the U.S. government's official web portal to all federal, state and local government web resources and services.